Location: Unspecified
(40.7945°N, 0.0000°E)
Time: 06:21:58
(UTC+00:00)

Altair - Pass Details

Date: 23 January 2021
Orbit: 1501 x 1682 km, 47.2° (Epoch: 28 February)

Event Time Altitude Azimuth Distance (km) Brightness Sun altitude
Rises 13:44:09 0° 291° (WNW) 4,918 10.2 26.2°
Reaches altitude 10° 13:48:37 10° 275° (W) 3,906 10.0 25.8°
Maximum altitude 13:54:46 19° 236° (WSW) 3,229 10.5 25.3°
Drops below altitude 10° 14:00:50 10° 197° (SSW) 3,813 11.3 24.8°
Sets 14:05:09 0° 180° (S) 4,760 11.0 24.4°
